• In Hungary
  • List of Countries
  • For 7 days
  • Water Temperature
  • Satellite Maps
  • Weather Map
  • News
  • Weather Widgets
  • user-avatar
    Login

    Hourly Weather Koulikoro

    Today, 15 November, Thursday

    Time Temperature Precipitation Wind Pressure Humidity
    00:00 +28°C° 0 mm 0 mps 729 mmHg 25%
    01:00 +27°C° 0 mm 0 mps 729 mmHg 25%
    02:00 +27°C° 0 mm 0 mps 729 mmHg 26%
    03:00 +27°C° 0 mm 0 mps 729 mmHg 26%
    04:00 +28°C° 0 mm 1 mps 729 mmHg 26%
    05:00 +28°C° 0 mm 1 mps 729 mmHg 26%
    06:00 +30°C° 0 mm 1 mps 729 mmHg 24%
    07:00 +32°C° 0 mm 1 mps 729 mmHg 22%
    08:00 +34°C° 0 mm 1 mps 730 mmHg 19%
    09:00 +37°C° 0 mm 2 mps 730 mmHg 17%
    10:00 +38°C° 0 mm 2 mps 729 mmHg 16%
    11:00 +40°C° 0 mm 3 mps 729 mmHg 14%
    12:00 +42°C° 0 mm 3 mps 728 mmHg 13%
    13:00 +42°C° 0 mm 3 mps 728 mmHg 11%
    14:00 +42°C° 0 mm 3 mps 727 mmHg 10%
    15:00 +40°C° 0 mm 2 mps 727 mmHg 11%
    16:00 +38°C° 0 mm 2 mps 727 mmHg 12%
    17:00 +36°C° 0 mm 2 mps 727 mmHg 13%
    18:00 +35°C° 0 mm 2 mps 728 mmHg 13%
    19:00 +33°C° 0 mm 1 mps 728 mmHg 13%
    20:00 +32°C° 0 mm 1 mps 729 mmHg 13%
    21:00 +31°C° 0 mm 1 mps 729 mmHg 13%
    22:00 +31°C° 0 mm 1 mps 729 mmHg 14%
    23:00 +30°C° 0 mm 1 mps 729 mmHg 14%

    Tomorrow, 16 November, Friday

    Time Temperature Precipitation Wind Pressure Humidity
    00:00 +29°C° 0 mm 1 mps 729 mmHg 15%
    01:00 +28°C° 0 mm 1 mps 729 mmHg 15%
    02:00 +28°C° 0 mm 1 mps 728 mmHg 16%
    03:00 +27°C° 0 mm 1 mps 728 mmHg 16%
    04:00 +27°C° 0 mm 1 mps 728 mmHg 16%
    05:00 +26°C° 0 mm 1 mps 728 mmHg 16%
    06:00 +29°C° 0 mm 1 mps 729 mmHg 15%
    07:00 +31°C° 0 mm 1 mps 730 mmHg 14%
    08:00 +34°C° 0 mm 2 mps 730 mmHg 12%
    09:00 +36°C° 0 mm 2 mps 730 mmHg 12%
    10:00 +38°C° 0 mm 2 mps 730 mmHg 11%
    11:00 +40°C° 0 mm 3 mps 730 mmHg 10%
    12:00 +40°C° 0 mm 3 mps 729 mmHg 10%
    13:00 +41°C° 0 mm 2 mps 728 mmHg 9%
    14:00 +41°C° 0 mm 2 mps 728 mmHg 9%
    15:00 +39°C° 0 mm 2 mps 728 mmHg 11%
    16:00 +37°C° 0 mm 2 mps 727 mmHg 12%
    17:00 +35°C° 0 mm 1 mps 727 mmHg 13%
    18:00 +34°C° 0 mm 1 mps 728 mmHg 14%
    19:00 +33°C° 0 mm 1 mps 729 mmHg 15%
    20:00 +32°C° 0 mm 1 mps 729 mmHg 16%
    21:00 +31°C° 0 mm 1 mps 729 mmHg 16%
    22:00 +31°C° 0 mm 1 mps 729 mmHg 17%
    23:00 +30°C° 0 mm 1 mps 729 mmHg 18%

    Day after tomorrow, 17 November, Saturday

    Time Temperature Precipitation Wind Pressure Humidity
    00:00 +30°C° 0 mm 1 mps 729 mmHg 19%
    01:00 +29°C° 0 mm 1 mps 729 mmHg 21%
    02:00 +29°C° 0 mm 1 mps 728 mmHg 22%
    03:00 +29°C° 0 mm 1 mps 729 mmHg 25%
    04:00 +28°C° 0 mm 2 mps 729 mmHg 28%
    05:00 +28°C° 0 mm 2 mps 729 mmHg 30%
    06:00 +30°C° 0 mm 2 mps 729 mmHg 31%
    07:00 +31°C° 0 mm 3 mps 730 mmHg 31%
    08:00 +34°C° 0 mm 4 mps 730 mmHg 32%
    09:00 +36°C° 0 mm 4 mps 730 mmHg 30%
    10:00 +37°C° 0 mm 4 mps 730 mmHg 27%
    11:00 +40°C° 0 mm 4 mps 730 mmHg 25%
    12:00 +40°C° 0 mm 3 mps 729 mmHg 23%
    13:00 +40°C° 0 mm 3 mps 728 mmHg 22%
    14:00 +40°C° 0 mm 2 mps 727 mmHg 20%
    15:00 +39°C° 0 mm 2 mps 727 mmHg 22%
    16:00 +38°C° 0 mm 2 mps 727 mmHg 25%
    17:00 +36°C° 0 mm 2 mps 727 mmHg 27%
    18:00 +35°C° 0 mm 2 mps 728 mmHg 29%
    19:00 +35°C° 0 mm 2 mps 729 mmHg 32%
    20:00 +34°C° 0 mm 2 mps 729 mmHg 35%
    21:00 +32°C° 0 mm 2 mps 729 mmHg 36%
    22:00 +32°C° 0 mm 2 mps 729 mmHg 38%
    23:00 +31°C° 0 mm 2 mps 729 mmHg 40%

    18 November, Sunday

    Time Temperature Precipitation Wind Pressure Humidity
    00:00 +31°C° 0 mm 3 mps 729 mmHg 42%
    01:00 +30°C° 0 mm 3 mps 728 mmHg 43%
    02:00 +30°C° 0 mm 3 mps 728 mmHg 45%
    03:00 +29°C° 0 mm 3 mps 728 mmHg 49%
    04:00 +29°C° 0 mm 3 mps 728 mmHg 53%
    05:00 +28°C° 0 mm 4 mps 728 mmHg 56%
    06:00 +29°C° 0 mm 4 mps 729 mmHg 55%
    07:00 +30°C° 0 mm 4 mps 730 mmHg 55%
    08:00 +32°C° 0 mm 4 mps 730 mmHg 54%
    09:00 +33°C° 0 mm 4 mps 730 mmHg 45%
    10:00 +35°C° 0 mm 4 mps 730 mmHg 37%
    11:00 +37°C° 0 mm 4 mps 730 mmHg 29%
    12:00 +37°C° 0 mm 4 mps 729 mmHg 25%
    13:00 +38°C° 0 mm 3 mps 728 mmHg 22%
    14:00 +39°C° 0 mm 3 mps 727 mmHg 18%
    15:00 +38°C° 0 mm 3 mps 727 mmHg 18%
    16:00 +37°C° 0 mm 2 mps 728 mmHg 19%
    17:00 +34°C° 0 mm 1 mps 728 mmHg 19%
    18:00 +33°C° 0 mm 1 mps 728 mmHg 21%
    19:00 +32°C° 0 mm 1 mps 729 mmHg 23%
    20:00 +31°C° 0 mm 1 mps 729 mmHg 25%
    21:00 +31°C° 0 mm 1 mps 729 mmHg 25%
    22:00 +30°C° 0 mm 1 mps 729 mmHg 26%
    23:00 +30°C° 0 mm 2 mps 729 mmHg 26%

    19 November, Monday

    Time Temperature Precipitation Wind Pressure Humidity
    00:00 +29°C° 0 mm 2 mps 729 mmHg 25%
    01:00 +29°C° 0 mm 2 mps 729 mmHg 24%
    02:00 +28°C° 0 mm 2 mps 728 mmHg 23%
    03:00 +28°C° 0 mm 2 mps 728 mmHg 24%
    04:00 +28°C° 0 mm 2 mps 729 mmHg 25%
    05:00 +27°C° 0 mm 2 mps 729 mmHg 25%
    06:00 +29°C° 0 mm 2 mps 730 mmHg 23%
    07:00 +30°C° 0 mm 3 mps 730 mmHg 22%
    08:00 +33°C° 0 mm 3 mps 731 mmHg 20%
    09:00 +34°C° 0 mm 3 mps 731 mmHg 19%
    10:00 +35°C° 0 mm 3 mps 731 mmHg 18%
    11:00 +36°C° 0 mm 3 mps 730 mmHg 17%
    12:00 +35°C° 0 mm 3 mps 730 mmHg 20%
    13:00 +34°C° 0 mm 3 mps 729 mmHg 22%
    14:00 +33°C° 0 mm 3 mps 728 mmHg 25%
    15:00 +31°C° 0.1 mm 3 mps 729 mmHg 28%
    16:00 +30°C° 0.1 mm 3 mps 729 mmHg 31%
    17:00 +29°C° 0.1 mm 3 mps 729 mmHg 33%
    18:00 +29°C° 0 mm 2 mps 730 mmHg 35%
    19:00 +29°C° 0 mm 2 mps 730 mmHg 37%
    20:00 +28°C° 0 mm 2 mps 731 mmHg 39%
    21:00 +28°C° 0 mm 2 mps 731 mmHg 39%
    22:00 +28°C° 0 mm 1 mps 730 mmHg 40%
    23:00 +28°C° 0 mm 1 mps 730 mmHg 40%

    20 November, Tuesday

    Time Temperature Precipitation Wind Pressure Humidity
    00:00 +28°C° 0 mm 1 mps 730 mmHg 40%
    01:00 +28°C° 0 mm 1 mps 729 mmHg 40%
    02:00 +27°C° 0 mm 1 mps 729 mmHg 40%
    03:00 +27°C° 0 mm 1 mps 729 mmHg 40%
    04:00 +27°C° 0 mm 1 mps 729 mmHg 40%
    05:00 +27°C° 0 mm 1 mps 730 mmHg 40%
    06:00 +29°C° 0 mm 1 mps 730 mmHg 38%
    07:00 +30°C° 0 mm 1 mps 731 mmHg 35%
    08:00 +32°C° 0 mm 1 mps 731 mmHg 33%
    09:00 +34°C° 0 mm 2 mps 731 mmHg 30%
    10:00 +35°C° 0 mm 2 mps 731 mmHg 27%
    11:00 +37°C° 0 mm 2 mps 731 mmHg 25%
    12:00 +37°C° 0 mm 2 mps 730 mmHg 25%
    13:00 +37°C° 0 mm 2 mps 730 mmHg 26%
    14:00 +37°C° 0 mm 2 mps 729 mmHg 26%
    15:00 +35°C° 0 mm 1 mps 729 mmHg 28%
    16:00 +34°C° 0 mm 1 mps 729 mmHg 31%
    17:00 +33°C° 0 mm 1 mps 729 mmHg 33%
    18:00 +32°C° 0 mm 1 mps 730 mmHg 34%
    19:00 +31°C° 0 mm 1 mps 730 mmHg 36%
    20:00 +31°C° 0 mm 1 mps 731 mmHg 37%
    21:00 +30°C° 0 mm 1 mps 731 mmHg 39%
    22:00 +30°C° 0 mm 1 mps 730 mmHg 42%
    23:00 +29°C° 0 mm 1 mps 730 mmHg 44%
    Show more